GW5165 Weather Reports


Display with metric or nautical units.
time (UTC)temp
F
wind
direction
speed
MPH
gust
MPH
rain 1hr
in
rain 24hr
in
rain mn
in
humidity
%
barometer
mb
20260504070326 53 100 2.0 2.0 0.00 0.00 0.00 46 1003.0
20260504060247 54 241 1.0 1.0 0.00 0.00 0.00 45 1004.0
20260504050715 55 262 2.0 2.0 0.00 0.00 0.00 43 1004.8
20260504050212 55 182 1.0 2.0 0.00 0.00 0.00 43 1004.6
20260504045710 55 156 0.0 1.0 0.00 0.00 0.00 43 1004.9
20260504045209 56 306 1.0 1.0 0.00 0.00 0.00 42 1004.9
20260504044707 56 265 2.0 3.0 0.00 0.00 0.00 42 1005.0
20260504044204 56 206 3.0 4.0 0.00 0.00 0.00 41 1005.1
20260504043701 57 265 2.0 2.0 0.00 0.00 0.00 41 1005.2
20260504043158 57 154 1.0 1.0 0.00 0.00 0.00 41 1005.1
20260504042655 57 255 2.0 2.0 0.00 0.00 0.00 40 1005.3
20260504042152 57 58 3.0 4.0 0.00 0.00 0.00 40 1005.4
20260504041648 57 239 2.0 2.0 0.00 0.00 0.00 40 1005.5
20260504041144 58 260 2.0 2.0 0.00 0.00 0.00 39 1005.4
20260504040641 58 303 0.0 1.0 0.00 0.00 0.00 39 1005.7
20260504040138 58 239 0.0 1.0 0.00 0.00 0.00 39 1005.8
20260504035634 59 210 0.0 1.0 0.00 0.00 0.00 38 1005.6
20260504035131 59 254 1.0 1.0 0.00 0.00 0.00 38 1005.7
20260504034629 59 216 1.0 1.0 0.00 0.00 0.00 37 1005.9
20260504034126 60 277 2.0 2.0 0.00 0.00 0.00 37 1005.9
20260504033624 60 241 2.0 2.0 0.00 0.00 0.00 36 1006.0
20260504033121 61 229 2.0 2.0 0.00 0.00 0.00 35 1005.9
20260504032618 62 125 1.0 1.0 0.00 0.00 0.00 34 1005.9
20260504032114 62 238 2.0 3.0 0.00 0.00 0.00 34 1006.1
20260504031612 61 213 1.0 2.0 0.00 0.00 0.00 34 1006.1
20260504031108 61 217 1.0 1.0 0.00 0.00 0.00 35 1006.1
20260504030605 61 243 2.0 2.0 0.00 0.00 0.00 36 1006.0
20260504030101 61 272 1.0 1.0 0.00 0.00 0.00 36 1006.0
20260504025558 60 228 2.0 2.0 0.00 0.00 0.00 36 1006.1
20260504025055 60 267 2.0 2.0 0.00 0.00 0.00 36 1006.2
20260504024552 60 210 0.0 1.0 0.00 0.00 0.00 36 1006.2
20260504024049 61 205 0.0 0.0 0.00 0.00 0.00 35 1006.0
20260504023545 61 122 0.0 0.0 0.00 0.00 0.00 35 1006.1
20260504023041 61 174 0.0 0.0 0.00 0.00 0.00 35 1006.1
20260504022537 61 157 0.0 0.0 0.00 0.00 0.00 34 1006.2
20260504022034 61 200 0.0 0.0 0.00 0.00 0.00 35 1006.1
20260504021532 61 127 0.0 0.0 0.00 0.00 0.00 35 1005.9
20260504021028 61 148 0.0 0.0 0.00 0.00 0.00 34 1006.1
20260504020525 62 161 0.0 0.0 0.00 0.00 0.00 34 1006.2
20260504020022 63 159 0.0 0.0 0.00 0.00 0.00 34 1006.3
20260504015518 64 156 0.0 0.0 0.00 0.00 0.00 33 1006.1
20260504015014 64 157 0.0 0.0 0.00 0.00 0.00 32 1006.2
20260504014510 64 179 1.0 1.0 0.00 0.00 0.00 31 1006.2
20260504014008 65 181 0.0 0.0 0.00 0.00 0.00 31 1006.0
20260504013506 65 347 1.0 1.0 0.00 0.00 0.00 30 1006.1
20260504013001 65 350 0.0 0.0 0.00 0.00 0.00 30 1006.1
20260504012500 66 162 1.0 1.0 0.00 0.00 0.00 29 1006.1
20260504011957 66 249 1.0 1.0 0.00 0.00 0.00 29 1006.1
20260504011453 66 261 1.0 1.0 0.00 0.00 0.00 29 1006.2
20260504010949 67 283 3.0 3.0 0.00 0.00 0.00 29 1006.1
20260504010446 67 287 2.0 2.0 0.00 0.00 0.00 28 1006.2
20260504005942 68 339 1.0 2.0 0.00 0.00 0.00 28 1006.3
20260504005439 68 239 2.0 2.0 0.00 0.00 0.00 27 1006.1
20260504004936 69 247 3.0 3.0 0.00 0.00 0.00 27 1006.2
20260504004434 69 279 4.0 4.0 0.00 0.00 0.00 26 1006.4
20260504003930 69 319 3.0 3.0 0.00 0.00 0.00 26 1006.3
20260504003427 70 277 4.0 4.0 0.00 0.00 0.00 26 1006.3
20260504002923 70 272 4.0 4.0 0.00 0.00 0.00 26 1006.3
20260504002420 70 299 2.0 3.0 0.00 0.00 0.00 25 1006.5
20260504001918 70 274 4.0 4.0 0.00 0.00 0.00 24 1006.3
20260504001416 70 308 4.0 4.0 0.00 0.00 0.00 24 1006.3
20260504000912 70 295 7.0 9.0 0.00 0.00 0.00 24 1006.4
20260504000409 71 332 3.0 4.0 0.00 0.00 0.00 25 1006.5
20260503235906 71 276 3.0 4.0 0.00 0.00 0.00 26 1006.5
20260503235404 70 260 4.0 7.0 0.00 0.00 0.00 25 1006.3
20260503234901 71 267 7.0 9.0 0.00 0.00 0.00 25 1006.4
20260503234359 70 267 6.0 7.0 0.00 0.00 0.00 25 1006.6
20260503233856 71 282 10.0 11.0 0.00 0.00 0.00 24 1006.4
20260503233353 71 273 9.0 10.0 0.00 0.00 0.00 25 1006.4
20260503232849 71 278 6.0 8.0 0.00 0.00 0.00 25 1006.6
20260503232347 71 297 8.0 10.0 0.00 0.00 0.00 25 1006.5
20260503231845 72 317 6.0 7.0 0.00 0.00 0.00 24 1006.6
20260503231342 72 325 4.0 6.0 0.00 0.00 0.00 26 1006.5
20260503230838 72 356 6.0 9.0 0.00 0.00 0.00 26 1006.6
20260503230335 71 246 4.0 6.0 0.00 0.00 0.00 25 1006.7
20260503225833 72 353 4.0 7.0 0.00 0.00 0.00 26 1006.5
20260503225328 72 324 4.0 6.0 0.00 0.00 0.00 25 1006.6
20260503224824 72 326 9.0 11.0 0.00 0.00 0.00 25 1006.7
20260503224321 71 251 4.0 6.0 0.00 0.00 0.00 25 1006.5
20260503223819 72 236 8.0 9.0 0.00 0.00 0.00 25 1006.7
20260503223317 71 320 5.0 9.0 0.00 0.00 0.00 26 1006.5
20260503222812 72 358 6.0 8.0 0.00 0.00 0.00 26 1006.6
20260503222311 71 272 5.0 6.0 0.00 0.00 0.00 26 1006.4
20260503221809 72 319 8.0 9.0 0.00 0.00 0.00 26 1006.7
20260503221307 71 343 5.0 8.0 0.00 0.00 0.00 26 1006.5
20260503220802 71 315 7.0 13.0 0.00 0.00 0.00 26 1006.7
20260503220259 71 268 4.0 6.0 0.00 0.00 0.00 27 1006.6
20260503215756 71 292 9.0 13.0 0.00 0.00 0.00 26 1006.7
20260503215253 71 282 5.0 7.0 0.00 0.00 0.00 26 1006.9
20260503214751 71 283 9.0 13.0 0.00 0.00 0.00 26 1006.7
20260503214248 71 343 10.0 17.0 0.00 0.00 0.00 26 1006.8
20260503213746 70 326 12.0 14.0 0.00 0.00 0.00 27 1006.7
20260503213243 71 304 7.0 11.0 0.00 0.00 0.00 27 1006.8
20260503212739 71 231 8.0 11.0 0.00 0.00 0.00 26 1006.8
20260503212237 71 299 7.0 9.0 0.00 0.00 0.00 26 1007.0
20260503211735 71 316 9.0 11.0 0.00 0.00 0.00 26 1006.9
20260503211231 71 341 8.0 10.0 0.00 0.00 0.00 26 1007.0
20260503210726 71 320 9.0 11.0 0.00 0.00 0.00 26 1007.0
20260503210224 71 276 12.0 15.0 0.00 0.00 0.00 25 1007.0
20260503205719 71 237 5.0 6.0 0.00 0.00 0.00 26 1006.8
20260503205216 71 292 12.0 15.0 0.00 0.00 0.00 26 1007.0
20260503204712 71 308 7.0 11.0 0.00 0.00 0.00 27 1007.0
20260503204210 72 276 12.0 18.0 0.00 0.00 0.00 26 1007.3
20260503203707 71 282 4.0 6.0 0.00 0.00 0.00 27 1007.1
20260503203205 71 292 8.0 9.0 0.00 0.00 0.00 26 1007.2
20260503202701 71 290 5.0 8.0 0.00 0.00 0.00 27 1007.2
20260503202159 72 272 7.0 10.0 0.00 0.00 0.00 26 1007.6
20260503201657 72 330 7.0 10.0 0.00 0.00 0.00 27 1007.6
20260503201154 71 224 7.0 8.0 0.00 0.00 0.00 29 1007.3
20260503200650 72 286 7.0 9.0 0.00 0.00 0.00 28 1007.2
20260503200147 71 292 4.0 7.0 0.00 0.00 0.00 29 1007.3
20260503195644 71 252 7.0 9.0 0.00 0.00 0.00 29 1007.2
20260503195141 71 285 5.0 6.0 0.00 0.00 0.00 30 1007.5
20260503194638 70 269 7.0 11.0 0.00 0.00 0.00 31 1007.2
20260503194133 71 265 6.0 7.0 0.00 0.00 0.00 29 1007.3
20260503193630 71 331 6.0 15.0 0.00 0.00 0.00 29 1007.3
20260503193126 70 347 6.0 8.0 0.00 0.00 0.00 29 1007.5
20260503192622 70 2 9.0 13.0 0.00 0.00 0.00 30 1007.5
20260503192117 70 276 9.0 15.0 0.00 0.00 0.00 29 1007.2
20260503191615 70 314 9.0 13.0 0.00 0.00 0.00 29 1007.5
20260503191111 70 339 9.0 11.0 0.00 0.00 0.00 31 1007.7
20260503190609 70 4 7.0 11.0 0.00 0.00 0.00 31 1007.5
20260503190106 70 317 8.0 14.0 0.00 0.00 0.00 29 1007.7
20260503185602 70 63 5.0 8.0 0.00 0.00 0.00 30 1007.6
20260503185102 71 347 3.0 6.0 0.00 0.00 0.00 29 1007.5
20260503184557 69 252 4.0 7.0 0.00 0.00 0.00 31 1007.5
20260503184054 69 280 13.0 16.0 0.00 0.00 0.00 30 1007.8
20260503183551 69 32 9.0 10.0 0.00 0.00 0.00 30 1007.7
20260503183048 69 15 4.0 11.0 0.00 0.00 0.00 31 1007.7
20260503182546 70 321 5.0 9.0 0.00 0.00 0.00 31 1007.7
20260503182044 71 124 6.0 11.0 0.00 0.00 0.00 31 1007.9
20260503181541 69 311 4.0 6.0 0.00 0.00 0.00 32 1007.8
20260503181037 69 313 7.0 9.0 0.00 0.00 0.00 32 1007.7
20260503180535 69 14 4.0 8.0 0.00 0.00 0.00 29 1007.9
20260503180032 69 316 10.0 14.0 0.00 0.00 0.00 29 1008.0
20260503175529 68 9 8.0 10.0 0.00 0.00 0.00 30 1008.0
20260503175026 68 273 11.0 14.0 0.00 0.00 0.00 30 1007.8
20260503174524 69 322 9.0 15.0 0.00 0.00 0.00 31 1008.0
20260503174020 68 305 8.0 13.0 0.00 0.00 0.00 31 1008.0
20260503173515 68 288 6.0 8.0 0.00 0.00 0.00 33 1007.9
20260503173011 68 0 13.0 17.0 0.00 0.00 0.00 33 1007.9
20260503172509 68 337 11.0 13.0 0.00 0.00 0.00 34 1008.1
20260503172006 68 343 8.0 11.0 0.00 0.00 0.00 35 1007.9
20260503171502 68 226 7.0 11.0 0.00 0.00 0.00 34 1008.1
20260503171000 68 320 13.0 16.0 0.00 0.00 0.00 34 1008.2
20260503170456 67 38 3.0 3.0 0.00 0.00 0.00 35 1007.9
20260503150848 60 274 9.0 11.0 0.00 0.00 0.00 45 1007.7
20260503150344 60 333 8.0 11.0 0.00 0.00 0.00 45 1007.7
20260503140309 57 325 7.0 8.0 0.00 0.00 0.00 48 1007.2
20260503131238 54 291 7.0 8.0 0.00 0.00 0.00 49 1006.9
20260503130736 54 274 9.0 11.0 0.00 0.00 0.00 49 1006.9
20260503130233 52 303 6.0 8.0 0.00 0.00 0.00 53 1006.8
20260503120159 50 99 2.0 4.0 0.00 0.00 0.00 53 1006.9
20260503110626 50 126 1.0 1.0 0.00 0.00 0.00 52 1007.0
20260503110124 50 66 2.0 2.0 0.00 0.00 0.00 52 1006.8
20260503081439 54 109 2.0 3.0 0.00 0.00 0.00 45 1009.2
20260503080937 54 109 2.0 3.0 0.00 0.00 0.00 45 1009.1
20260503080433 54 101 1.0 2.0 0.00 0.00 0.00 45 1009.0